Regional Weather Roundup
Issued by NWS

Home | Current Version | Previous Version | Text Only | Print | Product List | Glossary Off
Versions: 1 2 3 4 5 6 7 8 9 10 11 12 13 14 15 16 17 18 19 20 21 22 23 24 25 26 27 28 29 30 31 32 33 34 35 36 37 38 39 40 41 42 43 44 45 46 47 48 49 50

000
ASUS43 KIND 182209
RWRIN

WEATHER ROUNDUP FOR INDIANA
NATIONAL WEATHER SERVICE INDIANAPOLIS IN
600 PM EDT SAT APR 18 2015

NOTE: "FAIR" INDICATES FEW OR NO CLOUDS BELOW 12,000 FEET WITH NO
SIGNIFICANT WEATHER AND/OR OBSTRUCTIONS TO VISIBILITY.

* - STATION DOES NOT REPORT WEATHER SUCH AS PRECIPITATION OR FOG.

+ - STATION NOT QUALITY CONTROLLED BY THE NATIONAL WEATHER SERVICE.
    USE DATA WITH CAUTION...ESPECIALLY DEWPOINT AND RELATIVE
    HUMIDITY OBSERVATIONS.

INZ001>003-010>013-019-020-182300-
NORTHWEST INDIANA

CITY           SKY/WX    TMP DP  RH WIND       PRES   REMARKS
GARY /AIRPORT/ PTSUNNY   46  34  61 N14       30.05F
KNOX *+        CLOUDY    68  23  18 N9        29.98F
MICHIGAN CITY+ PTSUNNY   50  32  50 N6        30.03F
MONTICELLO +   PTSUNNY   77  49  37 E5        29.96S
RENSSELAER +   PTSUNNY   70  48  46 N10       29.99S
VALPARAISO     CLOUDY    58  38  47 N9        30.01F

$$

LMZ046-743>745-182300-
SOUTHERN LAKE MICHIGAN

STATION/POSITION TIME  TEMP WIND        PRES
                       AIR  DIR/SP/G
                 (UTC) (F)  (DEG/KT/KT) (MB)
BURNS HARBOR     2200   41  360/  7/  8 1017.6F
MICHIGAN CITY    2200   44  300/  3/  6   N/A
4NW MICH CITY    2200   41  330/  4/  6   N/A

$$

INZ004-005-014>016-021>024-182300-
NORTH CENTRAL INDIANA

CITY           SKY/WX    TMP DP  RH WIND       PRES   REMARKS
ELKHART        PTSUNNY   77  39  25 NE8       29.99F
GOSHEN         PTSUNNY   75  50  41 E7        29.99S
LOGANSPORT +   PTSUNNY   75  43  31 SE6       29.98S
PERU/GRISSOM   MOSUNNY   78  48  34 S5        29.97S
ROCHESTER +    PTSUNNY   79  43  27 CALM      29.98S
SOUTH BEND     PTSUNNY   72  47  40 NW9       29.99F
WARSAW +       CLOUDY    77  48  36 NE5       29.99S

$$

INZ006>009-017-018-025>027-182300-
NORTHEAST INDIANA

CITY           SKY/WX    TMP DP  RH WIND       PRES   REMARKS
ANGOLA *+      PTSUNNY   72  48  43 SE15      30.02R
AUBURN +       CLOUDY    72  45  37 E17G25    30.02R
FORT WAYNE     CLOUDY    74  51  44 NE10      29.99F
HUNTINGTON +   CLOUDY    76  40  26 CALM      29.98S

$$

INZ028-029-035-036-043>045-051>053-182300-
WEST CENTRAL INDIANA

CITY           SKY/WX    TMP DP  RH WIND       PRES   REMARKS
CRAWFORDSVL +  CLOUDY    73  37  27 E7        29.97S
GREENCASTLE +  CLOUDY    72  41  33 E7        29.97F
LAFAYETTE      PTSUNNY   75  48  38 SE6       29.96S
TERRE HAUTE    CLOUDY    75  48  38 E8        29.94F

$$

INZ030>032-037>040-046>048-054>057-064-065-182300-
CENTRAL INDIANA

CITY           SKY/WX    TMP DP  RH WIND       PRES   REMARKS
CP ATTERBURY + CLOUDY    73  43  33 E12       29.97S
COLUMBUS       PTSUNNY   75  41  29 E9        29.96F
FISHERS *+     CLOUDY    75  52  43 E5        29.97F
FRANKFORT +    PTSUNNY   77  47  34 E6        30.00S
GREENWOOD *+   CLOUDY    75  41  29 E7        29.98F
INDIANAPOLIS   CLOUDY    75  46  35 E12       29.96F
-EAGLE CREEK   CLOUDY    73  47  39 SE12      29.97F
KOKOMO *+      PTSUNNY   77  48  36 SE5       29.97S
MARION +       MOSUNNY   75  46  34 E5        29.99S
MT COMFORT *+  CLOUDY    75  30  19 E7        29.99S
SHELBYVILLE    CLOUDY    78  47  33 E8        29.97F
ZIONSVILLE +   CLOUDY    75  45  33 SE8       29.99S

$$

INZ033-034-041-042-049-050-058-059-182300-
EAST CENTRAL INDIANA

CITY           SKY/WX    TMP DP  RH WIND       PRES   REMARKS
MUNCIE         PTSUNNY   76  45  33 SE5       29.98F

$$

INZ060-061-067>069-081>083-085>088-182300-
SOUTHWEST INDIANA

CITY           SKY/WX    TMP DP  RH WIND       PRES   REMARKS
EVANSVILLE     PTSUNNY   80  51  36 E6        29.89F
HUNTINGBURG *+ PTSUNNY   79  52  38 SE8       29.90F
WASHINGTON +   CLOUDY    78  41  27 E10       29.91F

$$

INZ062-063-066-070>080-084-089>092-182300-
SOUTH CENTRAL AND SOUTHEAST INDIANA

CITY           SKY/WX    TMP DP  RH WIND       PRES   REMARKS
BEDFORD +      PTSUNNY   77  37  24 E7        29.94F
BLOOMINGTON    PTSUNNY   77  43  29 E9        29.95F
MADISON *+     MOSUNNY   77  36  22 NE12      29.97S
NORTH VERNON + PTSUNNY   77  41  27 E6        29.96F

$$



USA.gov is the U.S. government's official web portal to all federal, state and local government web resources and services.